Location: Northam
(31.6525°S, 116.6655°E)
Time: 22:30:29
(UTC+08:00)

N. Korean satellite - Visible Passes

Search period start: 15 May 2021 00:00
Search period end: 25 May 2021 00:00
Orbit: 450 x 501 km, 97.2° (Epoch: 14 May)

Date Brightness Start Highest point End Pass type
(mag) Time Alt. Az. Time Alt. Az. Time Alt. Az.
16 May 8.7 05:19:18 10° NNW 05:20:03 15° NNW 05:20:03 15° NNW visible
16 May 9.6 18:23:35 10° SSW 18:26:02 17° WSW 18:28:27 10° WNW visible
17 May 9.0 04:51:55 10° NNE 04:52:38 15° NNE 04:52:38 15° NNE visible
17 May 8.2 17:55:37 10° S 17:59:06 37° WSW 18:02:32 10° NW visible
19 May 8.8 05:31:32 10° NNW 05:31:56 12° NNW 05:31:56 12° NNW visible
19 May 9.8 18:36:25 10° SW 18:37:48 12° WSW 18:39:11 10° W visible
20 May 8.9 05:03:47 10° N 05:04:30 15° N 05:04:30 15° N visible
20 May 8.9 18:07:46 10° SSW 18:10:55 26° WSW 18:14:00 10° NW visible
21 May 9.5 04:36:48 10° NNE 04:37:05 12° NNE 04:37:05 12° NNE visible
23 May 8.9 05:15:45 10° N 05:16:22 14° NNW 05:16:22 14° NNW visible
23 May 9.5 18:20:04 10° SSW 18:22:40 18° WSW 18:25:14 10° WNW visible
24 May 9.2 04:48:26 10° NNE 04:48:55 13° NNE 04:48:55 13° NNE visible
24 May 8.0 17:52:10 10° S 17:55:42 41° WSW 17:59:09 10° NW visible
